Location: ??????
(36.0418°N, 43.6351°E)
Time: 04:41:44
(UTC+00:00)

Cosmos 2360 Rocket - Pass Details

Date: 07 March 2021
Orbit: 833 x 846 km, 71.0° (Epoch: 20 April)

Event Time Altitude Azimuth Distance (km) Brightness Sun altitude
Rises 01:02:10 0° 342° (NNW) 3,411 5.3 -30.0°
Reaches altitude 10° 01:04:40 10° 346° (NNW) 2,473 4.6 -29.5°
Maximum altitude 01:10:17 61° 66° (ENE) 958 2.6 -28.4°
Drops below altitude 10° 01:15:51 10° 147° (SSE) 2,456 4.8 -27.3°
Sets 01:18:19 0° 150° (SSE) 3,386 5.5 -26.8°
